[[{"header":{"parameterUnit":"m.s-1","parameterCategory":1,"la1":30.2991,"la2":30.254,"lo1":-89.0895,"lo2":-89.0444,"dy":0.0017,"dx":0.0017,"nx":28,"ny":28,"refTime":"2024-12-09T09:00:00:Z","depth":0,"parameterNumber":2,"parameterNumberName":"U-component_of_WINDS"},"data":[0,0,0,0,0,0,0,0,0,0,0,0,0,0,0,0,0,0,0,0,0,0,0,0,0,0,0,0,0,0,0,0,0,0,0,0,0,0,0,0,0,0,0,0,0,0,0,0,0,0,0,0,0,0,0,0,0,0,1.9268,1.927,0,1.941,1.9411,1.9413,1.9442,1.9441,1.944,1.9439,1.9581,1.9586,1.9591,0,0,0,0,0,0,0,0,0,0,0,0,0,1.9022,1.9026,1.9268,1.927,1.9272,1.9409,1.9411,1.9413,1.9442,1.9441,1.9439,1.9438,1.958,1.9586,1.9591,0,0,0,0,0,0,0,0,0,0,0,0,0,1.9142,1.9028,1.9268,1.9303,1.9307,1.9409,1.9411,1.9414,1.9442,1.9441,1.9439,1.9438,1.9578,1.9585,1.9592,1.9668,0,0,1.9614,1.9617,0,0,0,0,0,0,0,0,1.9136,1.9151,1.9296,1.9301,1.9306,1.9407,1.9377,1.9499,1.9443,1.9391,1.9439,1.9437,1.9524,1.9536,1.9566,1.9675,1.9681,1.9615,1.9619,1.9622,1.9624,0,0,0,0,0,0,0,1.9127,1.9145,1.9324,1.9298,1.9304,1.9311,1.9326,1.94,1.9465,1.9395,1.9398,1.9414,1.9527,1.9559,1.9569,1.9683,1.9614,1.9621,1.9625,1.9628,1.9863,1.9864,0,0,0,0,0,0,1.9113,1.9138,1.932,1.9328,1.9215,1.9317,1.9334,1.9376,1.9464,1.9476,1.9415,1.9415,1.9547,1.9561,1.9575,1.9671,1.9622,1.9629,1.9633,1.9861,1.9863,1.9865,0,0,0,0,0,0,1.9107,1.9129,1.9314,1.9234,1.9258,1.9323,1.9369,1.9379,1.9412,1.9479,1.9491,1.9437,1.9547,1.9564,1.9645,1.9676,1.9632,1.9639,1.9858,1.9861,1.9864,1.9862,0,0,0,0,0,0,1.91,1.9127,1.9157,1.9235,1.9262,1.9383,1.9371,1.9383,1.9424,1.9425,1.9502,1.9513,1.9547,1.9634,1.9652,1.9685,1.9644,1.9856,1.986,1.9863,1.986,1.9865,1.9869,0,0,0,0,0,1.9091,1.915,1.9158,1.918,1.9301,1.9385,1.94,1.9438,1.9426,1.9457,1.9501,1.9511,1.9669,1.9642,1.9663,1.9698,1.9854,1.9859,1.9863,1.9858,1.9864,1.9869,0,0,0,0,0,0,1.9073,1.9161,1.9171,1.9257,1.9313,1.9389,1.9429,1.9443,1.9503,1.9502,1.9545,1.9562,1.9641,1.9677,1.9646,1.9777,1.9761,1.977,1.975,1.9757,1.9761,1.9751,1.965,0,0,0,0,0,1.9079,1.914,1.9213,1.9282,1.9309,1.9364,1.9402,1.9426,1.9486,1.951,1.9559,1.9617,1.9679,1.972,1.9781,1.9865,1.9882,1.9899,1.9904,1.9907,1.9914,1.9962,1.9971,1.9879,1.9879,1.9879,0,0,1.9092,1.9148,1.9183,1.9279,1.9326,1.9388,1.9384,1.9449,1.9495,1.952,1.9599,1.9637,1.9704,1.9787,1.9826,1.982,1.9943,1.9913,1.9915,1.992,1.9967,1.9976,1.9984,1.9882,1.9882,1.9881,0,0,1.9148,1.9196,1.9259,1.9305,1.9376,1.9413,1.9427,1.9502,1.9529,1.9609,1.9629,1.9684,1.9791,1.9838,1.9876,1.9949,1.9961,1.9967,1.9991,2.0037,2.0044,2.0051,2.0078,2.0087,1.9974,1.9974,1.9974,0,1.9155,1.9249,1.9289,1.9354,1.9396,1.9421,1.9485,1.9528,1.9615,1.9643,1.9635,1.977,1.9817,1.9911,1.9929,1.9959,1.9977,1.996,2.004,2.0047,2.0054,2.008,2.009,1.9975,1.9975,1.9975,1.9975,0,1.9255,1.932,1.9362,1.9447,1.9493,1.9557,1.9606,1.9648,1.9668,1.9704,1.9786,1.9843,1.9917,1.9941,1.996,2.0038,2.0032,2.0032,2.0017,2.0063,2.0088,2.0098,1.9975,1.9975,1.9975,1.9975,0,0,1.9303,1.9409,1.9424,1.9463,1.9543,1.9594,1.9659,1.9732,1.9767,1.9826,1.9882,1.9972,1.9972,2.0015,2.004,2.008,2.0135,2.0075,2.0077,2.0085,2.0225,2.0226,2.0237,2.0143,2.0145,2.0147,2.022,0,1.9369,1.9487,1.9525,1.9623,1.9684,1.9709,1.9765,1.982,1.9856,1.9912,1.9951,2.0015,2.001,2.0036,2.0077,2.012,2.0164,2.0115,2.0195,2.0198,2.0179,2.025,2.0251,2.0317,2.023,2.0232,2.0233,0,1.9462,1.9524,1.9628,1.9702,1.9729,1.9779,1.9849,1.9903,1.9965,1.9988,2.0036,2.0058,2.0127,2.0107,2.0202,2.0167,2.0202,2.0228,2.0232,2.0241,2.0219,2.0262,2.0339,2.0349,2.0249,2.0247,2.0246,0,1.9488,1.9597,1.9674,1.9706,1.9793,1.9828,1.9866,1.9927,1.9969,2.003,2.0057,2.0124,2.0161,2.0213,2.0252,2.0234,2.0343,2.0327,2.0364,2.0364,2.0387,2.0385,2.0471,2.0408,2.0408,2.0407,2.0407,0,1.9558,1.9621,1.9687,1.9734,1.9806,1.9848,1.9917,1.9956,2.001,2.0065,2.009,2.0141,2.019,2.0247,2.0277,2.0351,2.0368,2.0388,2.0396,2.0387,2.0384,2.0411,2.0407,2.041,2.041,2.0409,2.0409,0,1.9599,1.9646,1.9732,1.9807,1.9828,1.9877,1.9942,1.9989,2.0025,2.0095,2.0113,2.0171,2.0239,2.0284,2.037,2.0391,2.0472,2.0478,2.0451,2.0455,2.0491,2.0487,2.0597,2.0614,2.0539,2.0539,2.054,0,1.9641,1.9691,1.9772,1.9812,1.985,1.9912,1.9955,1.9999,2.0042,2.0117,2.0155,2.0225,2.0284,2.0392,2.0441,2.0508,2.0516,2.055,2.0526,2.0515,2.0517,2.0514,2.052,2.0554,2.0555,2.0555,2.0555,0,1.9711,1.9732,1.9794,1.9864,1.9915,1.9971,2.0028,2.0058,2.0111,2.0159,2.023,2.0275,2.0365,2.0434,2.0505,2.0543,2.0558,2.0563,2.0575,2.0566,2.0549,2.056,2.0463,2.056,2.056,2.0559,2.0559,2.0559,1.9755,1.9801,1.9865,1.9933,1.9981,2.0033,2.0081,2.0125,2.0185,2.0262,2.0283,2.0358,2.0419,2.0516,2.0555,2.0613,2.0609,2.0627,2.0632,2.0635,2.0636,2.0539,2.0626,2.0626,2.0626,2.0626,2.0626,0,1.9827,1.987,1.9932,2.0012,2.0065,2.0075,2.0139,2.0182,2.0248,2.0304,2.0362,2.0444,2.0511,2.0566,2.0635,2.0671,2.068,2.0688,2.0686,2.0695,2.0636,2.0619,2.068,2.068,2.068,2.068,2.068,2.068,1.9871,1.9949,1.9977,2.0079,2.0121,2.0195,2.0231,2.0279,2.0325,2.0415,2.0472,2.0507,2.0563,2.0637,2.0699,2.0713,2.0738,2.0745,2.076,2.0705,2.0699,2.0693,2.0677,2.075,2.075,2.0815,2.0815,2.0816]},{"header":{"parameterUnit":"m.s-1","parameterCategory":1,"la1":30.2991,"la2":30.254,"lo1":-89.0895,"lo2":-89.0444,"dy":0.0017,"dx":0.0017,"nx":28,"ny":28,"refTime":"2024-12-09T09:00:00:Z","depth":0,"parameterNumber":3,"parameterNumberName":"V-component_of_WINDS"},"data":[0,0,0,0,0,0,0,0,0,0,0,0,0,0,0,0,0,0,0,0,0,0,0,0,0,0,0,0,0,0,0,0,0,0,0,0,0,0,0,0,0,0,0,0,0,0,0,0,0,0,0,0,0,0,0,0,0,0,3.499,3.4991,0,3.5114,3.5116,3.5117,3.5191,3.5192,3.5192,3.5193,3.5318,3.5321,3.5324,0,0,0,0,0,0,0,0,0,0,0,0,0,3.4818,3.482,3.499,3.4991,3.4993,3.5114,3.5116,3.5117,3.5191,3.5192,3.5192,3.5193,3.5317,3.5321,3.5324,0,0,0,0,0,0,0,0,0,0,0,0,0,3.4912,3.4821,3.499,3.5045,3.5051,3.5114,3.5116,3.5118,3.5191,3.5192,3.5192,3.5193,3.5316,3.532,3.5325,3.5342,0,0,3.5339,3.5341,0,0,0,0,0,0,0,0,3.4907,3.4918,3.5035,3.5041,3.5048,3.5138,3.5101,3.5193,3.5191,3.5138,3.5193,3.5193,3.5258,3.5267,3.5289,3.5348,3.5353,3.5339,3.5342,3.5344,3.5345,0,0,0,0,0,0,0,3.49,3.4913,3.5039,3.5037,3.5045,3.5063,3.5077,3.5119,3.5193,3.5143,3.5148,3.5162,3.5261,3.5285,3.5293,3.5355,3.5339,3.5343,3.5346,3.5348,3.5438,3.5438,0,0,0,0,0,0,3.4885,3.4907,3.5035,3.5043,3.4977,3.5066,3.5082,3.5108,3.5193,3.5206,3.5161,3.5165,3.5277,3.5287,3.5297,3.5325,3.5344,3.5348,3.5351,3.5438,3.5438,3.5438,0,0,0,0,0,0,3.4881,3.4895,3.503,3.4977,3.4995,3.5068,3.5098,3.5111,3.5134,3.5207,3.5221,3.5172,3.5277,3.5291,3.5331,3.5331,3.535,3.5354,3.5439,3.5438,3.5438,3.538,0,0,0,0,0,0,3.4875,3.4893,3.49,3.4976,3.4998,3.5062,3.5098,3.5113,3.5142,3.5148,3.522,3.5233,3.5279,3.5324,3.5336,3.5337,3.5358,3.5439,3.5438,3.5438,3.5382,3.5377,3.5373,0,0,0,0,0,3.4869,3.4878,3.49,3.4915,3.5008,3.5061,3.5074,3.5127,3.5141,3.5149,3.5197,3.5231,3.5329,3.5328,3.5341,3.5344,3.5439,3.5439,3.5438,3.5384,3.5378,3.5374,0,0,0,0,0,0,3.4799,3.4889,3.4915,3.4949,3.4997,3.5074,3.5085,3.5119,3.5163,3.5167,3.523,3.5246,3.5281,3.5317,3.5314,3.5367,3.5388,3.539,3.5342,3.5338,3.5333,3.5324,3.5361,0,0,0,0,0,3.4788,3.4823,3.49,3.4923,3.4946,3.5011,3.5036,3.5073,3.5126,3.5146,3.5197,3.5246,3.5289,3.5315,3.5358,3.5388,3.5406,3.5397,3.5392,3.5388,3.5389,3.5411,3.5408,3.5435,3.5435,3.5435,0,0,3.4764,3.4818,3.4836,3.491,3.4952,3.4988,3.5028,3.5064,3.5092,3.5152,3.5194,3.5232,3.5292,3.5328,3.5346,3.5359,3.5386,3.5387,3.5384,3.5387,3.541,3.5407,3.5404,3.5435,3.5435,3.5435,0,0,3.4741,3.4784,3.4809,3.4851,3.4914,3.4958,3.4964,3.5037,3.5065,3.5108,3.5155,3.5189,3.526,3.5301,3.5331,3.5326,3.536,3.5338,3.5316,3.5335,3.5333,3.5332,3.5332,3.5331,3.5339,3.5339,3.5339,0,3.4703,3.476,3.4817,3.4852,3.4884,3.4941,3.4968,3.5005,3.5078,3.5099,3.5113,3.5205,3.5249,3.5296,3.5295,3.5317,3.5327,3.533,3.5329,3.5328,3.5327,3.5328,3.5328,3.5336,3.5336,3.5337,3.5337,0,3.4712,3.4751,3.4763,3.4835,3.4868,3.4898,3.4961,3.4987,3.5022,3.5065,3.5109,3.5164,3.5221,3.5234,3.5268,3.5288,3.5294,3.5317,3.534,3.5321,3.5323,3.5323,3.5332,3.5333,3.5334,3.5335,0,0,3.4646,3.4751,3.4755,3.4789,3.4865,3.4896,3.4929,3.4985,3.5008,3.5057,3.5088,3.5147,3.5171,3.5205,3.5244,3.5261,3.5256,3.5283,3.5285,3.5277,3.5284,3.5266,3.5265,3.5278,3.5279,3.5279,3.5279,0,3.4635,3.4698,3.4752,3.4796,3.4833,3.489,3.4919,3.4969,3.501,3.5048,3.5094,3.5136,3.5162,3.5184,3.5203,3.5252,3.5258,3.5253,3.5308,3.531,3.5293,3.5266,3.5248,3.5245,3.528,3.528,3.528,0,3.4629,3.4679,3.4726,3.48,3.4818,3.4843,3.4901,3.4936,3.4994,3.5023,3.5063,3.5104,3.5143,3.5162,3.5217,3.5212,3.5238,3.5266,3.5267,3.5275,3.5294,3.5275,3.5245,3.5245,3.5282,3.5281,3.5281,0,3.4579,3.4657,3.4696,3.4723,3.481,3.4827,3.4864,3.4923,3.4954,3.5004,3.5025,3.5078,3.5107,3.5148,3.5203,3.5211,3.5254,3.5276,3.528,3.5278,3.5286,3.5285,3.5262,3.5301,3.5301,3.5301,3.5301,0,3.4561,3.4588,3.4675,3.4699,3.4732,3.4794,3.4825,3.4867,3.4919,3.4953,3.5005,3.5035,3.5106,3.5145,3.5189,3.5229,3.5241,3.5267,3.5278,3.5263,3.526,3.5281,3.5283,3.5301,3.5301,3.5301,3.5301,0,3.451,3.4569,3.4616,3.4695,3.4716,3.4737,3.4805,3.4831,3.4876,3.4919,3.4932,3.5003,3.5052,3.5111,3.5179,3.5209,3.5246,3.5262,3.5226,3.5233,3.5234,3.5234,3.5225,3.5228,3.5263,3.5262,3.5262,0,3.4495,3.4518,3.46,3.4627,3.4663,3.4706,3.4738,3.4801,3.4833,3.4903,3.4921,3.4974,3.5021,3.5097,3.5155,3.5208,3.5226,3.522,3.5235,3.5219,3.5228,3.5227,3.523,3.5216,3.5215,3.5214,3.5214,0,3.4463,3.4492,3.4537,3.4593,3.4631,3.4678,3.4728,3.4747,3.482,3.4853,3.4905,3.4941,3.5012,3.5065,3.5126,3.5165,3.5202,3.5209,3.5213,3.5198,3.5177,3.519,3.5217,3.5209,3.5209,3.521,3.521,3.521,3.4431,3.4454,3.4517,3.4567,3.4611,3.4656,3.4686,3.4735,3.478,3.4843,3.4878,3.4929,3.4989,3.5075,3.5113,3.5154,3.5167,3.5172,3.5174,3.5175,3.5171,3.517,3.5165,3.5166,3.5166,3.5166,3.5166,0,3.4403,3.4446,3.4491,3.456,3.4599,3.4632,3.4689,3.472,3.4765,3.4818,3.4863,3.4924,3.4977,3.5039,3.5096,3.5117,3.5136,3.513,3.513,3.5139,3.5155,3.5147,3.5114,3.5114,3.5114,3.5114,3.5114,3.5114,3.4393,3.4436,3.4472,3.4538,3.4582,3.4634,3.4664,3.4707,3.475,3.4816,3.486,3.4901,3.4958,3.502,3.507,3.5088,3.5107,3.5096,3.5118,3.5133,3.5137,3.5141,3.5134,3.5099,3.5099,3.5099,3.5099,3.5099]}]]